This is the latest recevied weather packets stored in our database for station/object HP1MRA-15. If no packets are shown the sender has not sent any weather packets the latest 10 day(s).
| Time | Temp. | Humidity | Pressure | Rain* | Wind** | Luminosity | Snow |
|---|---|---|---|---|---|---|---|
| 1777845779 | 33.33° C | 57% | 1000.9 hPa | 0 mm | - | - | - |
| 1777845478 | 33.33° C | 54% | 1000.9 hPa | 0 mm | - | - | - |
| 1777845179 | 32.78° C | 54% | 1000.8 hPa | 0 mm | - | - | - |
| 1777844878 | 33.33° C | 54% | 1000.7 hPa | 0 mm | - | - | - |
| 1777844578 | 33.33° C | 53% | 1000.7 hPa | 0 mm | - | - | - |
| 1777844278 | 33.33° C | 53% | 1000.6 hPa | 0 mm | - | - | - |
| 1777843978 | 33.89° C | 53% | 1000.6 hPa | 0 mm | - | - | - |
| 1777843678 | 33.89° C | 53% | 1000.6 hPa | 0 mm | - | - | - |
| 1777843378 | 34.44° C | 52% | 1000.5 hPa | 0 mm | - | - | - |
| 1777843078 | 35° C | 50% | 1000.4 hPa | 0 mm | - | - | - |
| 1777842778 | 35.56° C | 49% | 1000.3 hPa | 0 mm | - | - | - |
| 1777842478 | 36.11° C | 48% | 1000.2 hPa | 0 mm | - | - | - |
| 1777842178 | 35.56° C | 48% | 1000.3 hPa | 0 mm | - | - | - |
| 1777841878 | 35.56° C | 49% | 1000.4 hPa | 0 mm | - | - | - |
| 1777841578 | 35° C | 50% | 1000.4 hPa | 0 mm | - | - | - |
| 1777841277 | 35° C | 49% | 1000.5 hPa | 0 mm | - | - | - |
| 1777840978 | 35.56° C | 50% | 1000.5 hPa | 0 mm | - | - | - |
| 1777840678 | 35.56° C | 49% | 1000.5 hPa | 0 mm | - | - | - |
| 1777840377 | 35.56° C | 48% | 1000.5 hPa | 0 mm | - | - | - |
| 1777840077 | 36.11° C | 49% | 1000.6 hPa | 0 mm | - | - | - |
| 1777839778 | 35.56° C | 49% | 1000.7 hPa | 0 mm | - | - | - |
| 1777839478 | 36.11° C | 48% | 1000.7 hPa | 0 mm | - | - | - |
| 1777839177 | 37.22° C | 46% | 1000.8 hPa | 0 mm | - | - | - |
| 1777838877 | 37.78° C | 45% | 1000.9 hPa | 0 mm | - | - | - |
| 1777838578 | 37.78° C | 47% | 1000.9 hPa | 0 mm | - | - | - |
* Rain latest hour (hover to see other rain measurements)
** Current wind speed in m/s (hover to see current wind gust speed)